Home   Weather   Amberg   Past weeks

Flag for Germany Past Weather in Amberg, Bavaria, Germany — Yesterday and Last 2 Weeks

Now
23 °F

Mostly cloudy.


Feels Like: 15 °F
Forecast: 12 / 28 °F
Wind: 7 mph from North

Location: Hohenfels

Current Time: Jan 16, 2017 at 11:08:05 pm

Latest Report: Jan 16, 2017 at 9:58 pm


Visibility: N/A

Pressure: 30.40 "Hg

Humidity: 90%

Dew Point: 20 °F

Location of AmbergLocation

Past Weather in Amberg — Graph

°F

Amberg Temperature Yesterday

Maximum temperature yesterday: 32 °F (at 11:02 am)
Minimum temperature yesterday: 26 °F (at 11:58 pm)
Average temperature yesterday: 29 °F

High & Low Weather Summary for the Past Weeks

 TemperatureHumidityPressure
High39 °F (Jan 12, 2:58 pm)100% (Jan 2, 8:58 am)30.84 "Hg (Jan 2, 8:58 am)
Low-6 °F (Jan 7, 2:58 am)63% (Jan 6, 1:58 pm)29.32 "Hg (Jan 13, 3:28 am)
Average27 °F86%30.09 "Hg
* Reported Jan 1 9:58 pm — Jan 16 9:58 pm, Amberg, Weather by CustomWeather, © 2017

Note: Actual official high and low records may vary slightly from our data, if they occured in-between our weather recording intervals... More about our weather records

Advertising

Amberg Weather History for the Previous 24 Hours

Scroll right to see more
 ConditionsComfort  
Time TempWeatherWind HumidityBarometerVisibility
9:58 pm
Mon, Jan 16
23 °FMostly cloudy.7 mph90%30.40 "HgN/A
9:38 pm23 °FOvercast.No wind93%30.28 "HgN/A
8:58 pm25 °FLight snow. Ice fog.3 mph86%30.37 "Hg6 mi
8:21 pm23 °FLight snow. Overcast.3 mph93%30.26 "HgN/A
7:58 pm24 °FOvercast.3 mph89%30.35 "HgN/A
7:44 pm23 °FPassing clouds.No wind93%30.24 "HgN/A
7:24 pm23 °FLight snow. Passing clouds.3 mph93%30.24 "HgN/A
6:58 pm25 °FMostly cloudy.3 mph87%30.34 "HgN/A
6:34 pm25 °FMostly cloudy.No wind86%30.22 "HgN/A
6:16 pm25 °FOvercast.3 mph86%30.22 "HgN/A
5:58 pm25 °FMostly cloudy.No wind86%30.31 "HgN/A
5:09 pm25 °FMostly cloudy.3 mph93%30.20 "HgN/A
4:58 pm27 °FOvercast.5 mph86%30.30 "HgN/A
3:58 pm27 °FLight snow. Mostly cloudy.3 mph85%30.28 "HgN/A
3:41 pm27 °FLight snow. Overcast.5 mph86%30.17 "HgN/A
3:04 pm27 °FLight snow. Ice fog.No wind86%30.17 "Hg3 mi
2:58 pm28 °FLight snow. Cloudy.5 mph85%30.27 "Hg5 mi
2:14 pm28 °FLight snow. Cloudy.6 mph80%30.16 "Hg5 mi
1:58 pm27 °FLight snow. Mostly cloudy.3 mph85%30.26 "HgN/A
1:10 pm27 °FLight snow. Mostly cloudy.6 mph86%30.15 "HgN/A
12:58 pm27 °FLight snow. Mostly cloudy.3 mph85%30.26 "HgN/A
12:21 pm27 °FLight snow. Ice fog.6 mph86%30.16 "Hg3 mi
12:10 pm27 °FLight snow. Ice fog.7 mph86%30.15 "Hg1 mi
11:35 am27 °FLight snow. Cloudy.3 mph86%30.16 "HgN/A
11:17 am27 °FLight snow. Mostly cloudy.6 mph86%30.16 "HgN/A
11:08 am27 °FLight snow. Cloudy.6 mph86%30.16 "HgN/A
10:25 am27 °FLight snow. Mostly cloudy.5 mph80%30.15 "HgN/A
9:58 am25 °FLight snow. Broken clouds.5 mph93%30.25 "HgN/A
9:36 am25 °FLight snow. Ice fog.5 mph86%30.15 "Hg5 mi
9:03 am25 °FLight snow. More clouds than sun.3 mph93%30.14 "HgN/A
8:58 am25 °FLight snow. More clouds than sun.No wind93%30.24 "HgN/A
8:36 am25 °FOvercast.No wind93%30.13 "HgN/A
8:25 am25 °FLight snow. Mostly cloudy.No wind93%30.13 "HgN/A
7:58 am25 °FOvercast.No wind89%30.22 "HgN/A
7:30 am25 °FMostly cloudy.No wind93%30.11 "HgN/A
6:58 am27 °FLight snow. Overcast.No wind86%30.20 "HgN/A
6:43 am27 °FLight snow. Overcast.No wind86%30.10 "HgN/A
6:30 am27 °FLight snow. Mostly cloudy.No wind86%30.10 "HgN/A
6:24 am27 °FLight snow. Mostly cloudy.3 mph86%30.10 "HgN/A
5:58 am27 °FOvercast.5 mph86%30.19 "HgN/A
5:02 am25 °FMostly cloudy.No wind93%30.09 "HgN/A
4:58 am25 °FMostly cloudy.No wind93%30.19 "HgN/A
4:31 am25 °FMostly cloudy.No wind93%30.09 "HgN/A
4:12 am25 °FMostly cloudy.3 mph93%30.09 "HgN/A
3:58 am25 °FOvercast.No wind88%30.18 "HgN/A
3:36 am25 °FLight snow. Overcast.3 mph93%30.09 "HgN/A
2:58 am25 °FMostly cloudy.No wind89%30.18 "HgN/A
2:31 am25 °FLight snow. Mostly cloudy.No wind86%30.09 "HgN/A
1:58 am26 °FPassing clouds.No wind86%30.18 "HgN/A
12:58 am27 °FOvercast.7 mph86%30.16 "HgN/A
12:02 am27 °FPassing clouds.5 mph86%30.08 "HgN/A
11:58 pm
Sun, Jan 15
26 °FPartly cloudy.5 mph88%30.16 "HgN/A
11:27 pm27 °FPassing clouds.5 mph93%30.07 "HgN/A
11:13 pm28 °FLight snow. Partly cloudy.5 mph86%30.07 "HgN/A
11:00 pm28 °FMostly cloudy.5 mph86%30.07 "HgN/A
Weather by CustomWeather, © 2017

See weather overviewHow to use our weather pages